Regional Weather Roundup
Issued by NWS

Home | Current Version | Previous Version | Text Only | Print | Product List | Glossary Off
Versions: 1 2 3 4 5 6 7 8 9 10 11 12 13 14 15 16 17 18 19 20 21 22 23 24 25 26 27 28 29 30 31 32 33 34 35 36 37 38 39 40 41 42 43 44 45 46 47 48 49 50

000
ASUS43 KMPX 260901
RWRMN
WEATHER ROUNDUP FOR MINNESOTA
NATIONAL WEATHER SERVICE TWIN CITIES/CHANHASSEN MN
400 AM CDT TUE JUL 26 2016


NOTE: "FAIR" INDICATES FEW OR NO CLOUDS BELOW 12,000 FEET WITH NO
SIGNIFICANT WEATHER AND/OR OBSTRUCTIONS TO VISIBILITY. N/A MEANS
CURRENT SKY AND/OR WEATHER CONDITIONS ARE NOT AVAILABLE.

MNZ060>063-068>070-261000-
   Twin Cities Metro

CITY           SKY/WX    TMP DP  RH WIND       PRES   REMARKS
TWIN CITIES    PTCLDY    73  64  73 SW5       30.04S
ST PAUL        CLEAR     69  66  90 SE5       30.04S
CRYSTAL        CLEAR     72  63  73 S7        30.02S
BLAINE         CLEAR     72  66  83 S6        30.03S
LAKEVILLE      CLEAR     66  66 100 CALM      30.05S
EDEN PRAIRIE   CLEAR     70  66  87 SW6       30.03F
LAKEVILLE      CLEAR     66  66 100 CALM      30.05S
SOUTH ST PAUL  CLEAR     70  65  85 CALM      30.04S
LAKE ELMO      FAIR      66  64  94 CALM      30.06R
$$
MNZ001>005-007-008-013>017-022>024-027-028-261000-
   Northwest Minnesota

CITY           SKY/WX    TMP DP  RH WIND       PRES   REMARKS
HALLOCK        CLEAR     63  61  94 CALM      29.93S
ROSEAU         CLEAR     61  55  82 CALM      29.95F
WARROAD        CLEAR     61  57  88 CALM      29.96S
THIEF RVR FALL CLEAR     68  65  90 E6        29.95S
CROOKSTON      CLEAR     70  64  83 NE6       29.93S
FOSSTON        CLEAR     64  61  88 CALM      29.96S
DETROIT LAKES  CLEAR     72  63  73 SW3       29.97S
MOORHEAD       CLOUDY    68  66  94 S9        29.94S THUNDER
PARK RAPIDS    PTCLDY    70  63  78 S6        29.97F
MAHNOMEN       FAIR      68  64  86 S5        29.94F
$$
MNZ006-009>011-018-025>026-261000-
   North Central Minnesota

CITY           SKY/WX    TMP DP  RH WIND       PRES   REMARKS
BAUDETTE       CLEAR     61  60  97 CALM      29.95F
FLAG ISLAND    CLEAR     70  63  78 CALM      29.95S
INTL FALLS     CLOUDY    63  61  93 CALM      29.97R
WASKISH        PTCLDY    64  64 100 CALM      29.95F
BIG FORK       PTCLDY    66  64  94 N6        29.98R
LONGVILLE      PTCLDY    72  64  78 S7        29.97F
GRAND RAPIDS   CLOUDY    68  65  90 S6        29.99F
ORR            DRIZZLE   64  61  88 CALM      29.97F
COOK           CLOUDY    64  63  94 N3        30.01R
WALKER         FAIR      71  63  76 SW5       29.96S
$$
MNZ012-019>021-037-261000-
   Northeast Minnesota

CITY           SKY/WX    TMP DP  RH WIND       PRES   REMARKS
DULUTH         PTCLDY    70  65  84 W10       30.00F
ELY            CLOUDY    61  59  94 CALM      29.99S
HIBBING        CLEAR     59  59 100 CALM      29.98F
EVELETH        PTCLDY    60  59  97 CALM      29.99F
DULUTH HARBOR  CLEAR     70  66  88 SW9       29.97F
TWO HARBORS    CLEAR     73  66  78 W5        29.97S
SILVER BAY     CLEAR     63  61  94 CALM      29.97S
GRAND MARAIS     N/A     62  59  90 CALM      29.94F
G MARAIS ARPRT CLEAR     63  55  77 CALM      30.00F
$$
MNZ029>031-032-039>041-046>048-054>057-064-261000-
   West Central Minnesota

CITY           SKY/WX    TMP DP  RH WIND       PRES   REMARKS
FERGUS FALLS   PTCLDY    70  63  78 S6        29.97S
WHEATON        PTCLDY    70  64  83 S8        29.96F
MORRIS         PTCLDY    66  64  94 S9        29.98S
ALEXANDRIA     PTCLDY    73  62  68 SW14      30.01F
ELBOW LAKE     FAIR      68  64  88 S9        29.97F
WADENA         PTCLDY    68  63  83 SW6       29.97F
GLENWOOD       CLEAR     70  64  83 S13       30.02S
APPLETON       CLEAR     72  63  73 S9        29.99S
BENSON         CLEAR     66  63  88 SW7       30.00S
ORTONVILLE     CLEAR     68  61  77 CALM      29.98S
MADISON        CLEAR     64  63  94 S6        30.00F
WILLMAR        FAIR      70  64  83 SW3       30.04S
$$
MNZ033>034-036-042>043-049>051-058-059-261000-
   Central Minnesota

CITY           SKY/WX    TMP DP  RH WIND       PRES   REMARKS
ST CLOUD       MOCLDY    67  66  97 S3        30.02S
SAUK CENTRE    PTSUNNY   65  63  91 S3        30.02S
PAYNESVILLE    CLEAR     68  64  85 S6        30.03S
AITKIN         PTCLDY    72  63  73 S5        29.98F
PINE RIVER     CLOUDY    70  64  83 S5        30.01F
BRAINERD       MOCLDY    71  65  81 S7        29.99F
STAPLES        MOCLDY    66  63  88 S6        29.98F
LONG PRAIRIE   FAIR      68  63  83 S8        30.01S
LITTLE FALLS   PTCLDY    66  63  88 S3        30.01S
LITCHFIELD     CLEAR     70  66  88 CALM      30.04S
BUFFALO        CLEAR     69  64  84 CALM      30.04S
MAPLE LAKE     PTCLDY    69  67  91 S3        30.04S
HUTCHINSON     CLEAR     68  65  91 CALM      30.05S
$$
MNZ037-044-045-052-053-261000-
   East Central Minnesota

CITY           SKY/WX    TMP DP  RH WIND       PRES   REMARKS
PRINCETON      MOCLDY    70  66  88 S3        30.02F
MORA           PTCLDY    64  64 100 CALM      30.03F
CAMBRIDGE      MOCLDY    72  63  73 S6        30.01F
RUSH CITY      PTCLDY    66  63  89 S3        30.03S
MOOSE LAKE     MOCLDY    63  61  94 CALM      29.99F
HINCKLEY       PTSUNNY   63  63 100 CALM      30.02S
CLOQUET        PTCLDY    70  63  78 SW6       30.00F
MCGREGOR       PTCLDY    68  64  88 CALM      30.00F
$$
MNZ071>073-080-081-089-090-097-098-261000-
   Southwest Minnesota

CITY           SKY/WX    TMP DP  RH WIND       PRES   REMARKS
MONTEVIDEO     CLEAR     68  63  83 SW7       30.04S
GRANITE FALLS  CLEAR     68  66  92 S6        30.04S
CANBY          CLEAR     74  62  66 SW13G22   30.02S
MARSHALL       CLEAR     70  64  81 SW12      30.03F
REDWOOD FALLS  CLEAR     68  63  84 S8        30.03F
OLIVIA         CLEAR     70  64  83 S7        30.03F
PIPESTONE      CLEAR     66  63  88 S5        30.09S
WINDOM         CLEAR     68  63  83 SW5       30.08S
WORTHINGTON    CLEAR     70  64  81 SW8       30.09F
JACKSON        CLEAR     68  63  83 SW6       30.09F
TRACY          CLEAR     71  65  82 SW15      30.05F
SLAYTON        CLEAR     66  63  88 S5        30.09F
$$
MNZ065>067-074>077-082>085-091>093-261000-
   South Central Minnesota

CITY           SKY/WX    TMP DP  RH WIND       PRES   REMARKS
MANKATO        CLEAR     70  63  78 S5        30.06F
NEW ULM        PTCLDY    68  64  88 SW5       30.05S
ST JAMES       CLEAR     63  61  94 CALM      30.07S
FAIRMONT       CLEAR     66  61  82 S7        30.07S
GLENCOE        CLEAR     69  67  93 CALM      30.04S
FARIBAULT      CLEAR     64  64 100 CALM      30.07F
OWATONNA       CLEAR     64  63  94 CALM      30.08S
WASECA         CLEAR     63  61  94 CALM      30.09S
ALBERT LEA     CLEAR     68  66  94 CALM      30.09S
$$
MNZ078>079-086>088-094>096-261000-
   Southeast Minnesota

CITY           SKY/WX    TMP DP  RH WIND       PRES   REMARKS
ROCHESTER      CLEAR     64  63  96 SW6       30.09S
RED WING       CLEAR     64  63  94 CALM      30.04F
STANTON        CLEAR     66  63  88 S3        30.05S
DODGE CENTER   CLEAR     63  61  94 CALM      30.09S
WINONA         PTCLDY    64  63  94 CALM      30.06F
AUSTIN         CLEAR     63  61  94 CALM      30.09S
PRESTON        CLEAR     65  61  86 CALM      30.09S
$$
ABBREVIATIONS USED IN REMARKS
   TC - TEMPERATURES IN CELSIUS
  WCI - WIND CHILL INDEX
   HX - HEAT INDEX
  VSB - VISIBILITY
$$




USA.gov is the U.S. government's official web portal to all federal, state and local government web resources and services.